Flag Weather past 2 weeks in Trier, Rhineland-Palatinate, Germany

Now
45 °F

Overcast.


Feels Like: 45 °F
Forecast: 38 / 50 °F
Wind: 2 mph from Northeast

Location: Trier-Petrisberg

Current Time: Nov 21, 2014 at 5:51:58 PM

Latest Report: Nov 21, 2014 at 5:00 PM


Visibility: 7 mi

Pressure: 30.13 "Hg

Humidity: 86%

Dew point: 41 °F

Location of TrierLocation

Historic Weather in Trier — Graph

°F

Trier temperature yesterday

Maximum temperature yesterday: 46 °F (at 3:00 PM)
Minimum temperature yesterday: 38 °F (at 6:00 AM)
Average temperature yesterday: 41 °F

Past Weeks' High & Low Weather Summary

 TemperatureHumidityPressure
High57 °F (Nov 14, 2:00 PM)100% (Nov 7, 12:00 AM)30.32 "Hg (Nov 7, 12:00 AM)
Low33 °F (Nov 7, 6:00 AM)67% (Nov 14, 2:00 PM)29.55 "Hg (Nov 16, 3:00 PM)
Average45 °F94%29.84 "Hg
* Reported Nov 6 4:00 PM — Nov 21 4:00 PM, Trier, Weather by CustomWeather, © 2014

Note: Actual official high and low records may vary slightly from our data, if they occured in-between our weather recording intervals... More about our weather records

Advertising

Trier weather history for previous 24 hours

 ConditionsComfort  
Time TempWeatherWind HumidityBarometerVisibility
4:00 PM
Nov 21
46 °FOvercast.2 mph85%30.14 "Hg6 mi
3:00 PM46 °FOvercast.2 mph82%30.14 "Hg7 mi
2:00 PM45 °FOvercast.2 mph85%30.15 "Hg8 mi
1:00 PM44 °FOvercast.2 mph87%30.17 "Hg7 mi
12:00 PM44 °FPartly sunny.2 mph84%30.18 "Hg6 mi
11:00 AM42 °FFog.2 mph89%30.19 "Hg3 mi
10:00 AM39 °FFog.3 mph97%30.21 "Hg2 mi
9:00 AM36 °FFog.3 mph99%30.20 "Hg2 mi
8:00 AM36 °FFog.2 mph98%30.20 "Hg4 mi
7:00 AM36 °FPassing clouds.3 mph98%30.20 "Hg4 mi
6:00 AM37 °FFog.5 mph97%30.21 "Hg4 mi
5:00 AM37 °FFog.5 mph97%30.22 "Hg4 mi
4:00 AM39 °FClear.5 mph94%30.23 "Hg5 mi
3:00 AM39 °FClear.6 mph94%30.24 "Hg6 mi
2:00 AM39 °FClear.6 mph94%30.24 "Hg6 mi
1:00 AM40 °FClear.7 mph93%30.25 "Hg6 mi
12:00 AM41 °FPassing clouds.6 mph92%30.26 "Hg7 mi
11:00 PM
Nov 20
41 °FClear.5 mph91%30.27 "Hg7 mi
10:00 PM42 °FPassing clouds.6 mph90%30.29 "Hg7 mi
9:00 PM42 °FPassing clouds.6 mph89%30.28 "Hg7 mi
8:00 PM43 °FOvercast.5 mph87%30.28 "Hg7 mi
7:00 PM43 °FOvercast.5 mph88%30.28 "Hg9 mi
6:00 PM43 °FOvercast.5 mph87%30.28 "Hg9 mi
5:00 PM44 °FOvercast.5 mph87%30.27 "Hg9 mi
Weather by CustomWeather, © 2014

See weather overviewHow to use our weather pages